Location: Hopewell Observatory
(38.8698°N, 77.6988°W)
Time: 02:46:46
(UTC-05:00)

Daily predictions for brighter satellites

Satellite Brightness Start Highest point End
(mag) Time Altitude Azimuth Time Altitude Azimuth Time Altitude Azimuth
H-2A R/B 4.4 03:23:24 45° ESE 03:23:24 45° ESE 03:43:40 10° E
Milstar 3 4.5 04:18:28 24° S 04:19:14 24° SSE 04:24:38 10° ESE
Cosmos 1844 Rocket 4.0 04:23:32 35° ESE 04:24:00 36° ESE 04:29:03 10° NE
Centaur D-1A AC-31 3.9 04:30:34 12° SSE 04:31:00 12° SSE 04:33:00 10° ESE
Lacrosse 5 3.3 04:33:47 35° E 04:33:47 35° E 04:37:01 10° ESE
Cosmos 1140 Rocket 4.4 04:45:22 24° SSE 04:48:02 44° ESE 04:52:53 10° NNE
COSMOS 2406 4.4 04:48:47 26° NNE 04:51:18 39° ENE 04:56:33 10° SE
DELTA 2 R/B (1) 3.8 04:52:14 68° ENE 04:52:14 68° ENE 04:57:07 10° E
Nadezhda 1 Rocket 4.1 04:55:51 62° SSW 04:55:51 62° SSW 05:01:08 10° S
CZ-2C R/B 4.3 04:52:29 10° SSE 04:56:34 58° ESE 04:56:34 58° ESE
CZ-4C R/B 3.7 04:55:29 24° N 04:59:43 47° NE 05:07:21 10° ESE
Tiangong 2 3.7 05:11:25 19° SE 05:11:25 19° SE 05:13:19 10° E
CENTAUR R/B 4.2 05:16:42 19° NNW 05:16:42 19° NNW 05:20:27 10° NNE
BREEZE-M DEB (TANK) 4.1 05:25:04 16° NE 05:25:04 16° NE 05:25:59 10° NE
Cosmos 1315 Rocket 4.0 05:21:08 17° NNE 05:23:52 41° ENE 05:27:39 10° SSE
Feng Yun 1-1 Rocket 4.1 05:21:20 10° NNE 05:26:47 86° ESE 05:32:10 10° SSW
EO 1 Del DPAF 4.0 05:24:33 10° SSE 05:28:14 51° ENE 05:30:23 23° N
Cosmos-2242 4.3 05:26:58 10° SSE 05:31:01 41° E 05:35:05 10° NNE
SKYMED 2 3.4 05:26:47 10° SSE 05:31:08 88° W 05:32:50 37° NNW
Cosmos 2181 Rocket 3.9 05:26:21 10° N 05:32:40 88° E 05:38:50 10° S
Cosmos 371 Rocket 4.1 05:36:44 10° N 05:41:30 51° ENE 05:46:14 10° SE
Cosmos 1741 Rocket 4.3 05:36:52 10° S 05:42:05 67° ESE 05:47:17 10° NNE
Landsat 4 3.6 05:39:50 10° S 05:43:36 65° WSW 05:44:12 55° NW
ATLAS CENTAUR R/B 3.5 05:41:47 10° N 05:44:57 22° NE 05:48:20 10° ESE
Cosmos 2278 Rocket 2.6 05:42:26 10° S 05:48:02 66° ESE 05:53:39 10° NNE
Cosmos 614 Rocket 4.0 05:43:59 11° SW 05:48:42 50° WNW 05:53:39 10° N
Timation 1 Rocket 4.2 05:43:08 10° SSW 05:49:08 79° WNW 05:55:11 10° NNE
PSLV R/B 4.1 05:55:15 31° SSW 05:55:19 31° SSW 05:58:06 10° SE
GPS 2-04 Rocket1 3.7 05:53:22 23° SW 05:55:36 44° SSE 05:59:41 10° E
Cosmos 1328 3.8 05:52:20 10° N 05:56:22 81° E 06:00:20 10° S
Cosmos 1400 Rocket 3.6 05:56:54 32° WSW 05:56:54 32° WSW 06:00:10 10° SSW
Abrixas rocket 4.1 05:56:23 18° N 05:57:04 19° NNE 05:59:31 10° ENE
CZ-2C R/B 2.1 05:53:53 10° N 05:58:29 72° WNW 06:03:08 10° SSW
IDEFIX/ARIANE 42P 2.6 05:53:25 10° N 05:58:33 53° WNW 06:03:39 10° SSW
DMSP B5D1-3 4.4 05:55:32 10° S 06:00:39 74° WSW 06:05:47 10° NNW
COSMOS 2455 4.2 06:00:51 19° NW 06:00:51 19° NW 06:04:52 10° N
Cosmos 1076 Rocket 3.6 05:57:33 17° NNW 06:00:44 51° W 06:04:53 10° S
SL-08 ROCKET BODY 4.5 06:01:33 10° SSW 06:07:10 48° W 06:12:51 10° N
Cosmos 1844 Rocket 3.4 06:05:21 21° W 06:07:53 30° WNW 06:12:45 10° N
BREEZE-M DEB (TANK) 4.2 06:09:41 18° NW 06:12:09 23° NNW 06:14:52 10° NE
Okean 3 Rocket 4.1 06:09:16 14° NNW 06:12:33 36° W 06:16:34 10° SSW
Okean-O 3.3 06:10:40 10° N 06:14:33 30° WNW 06:18:25 10° SW
Lacrosse 5 3.0 06:13:01 21° W 06:14:48 25° WSW 06:18:54 10° S
Cosmos 1766 Rocket 3.5 06:12:06 10° NNW 06:16:26 63° W 06:20:47 10° S
Meteor 1-11 4.3 06:11:45 10° N 06:17:33 87° W 06:23:22 10° S
Cosmos 1844 4.3 06:13:30 10° WSW 06:18:38 33° WNW 06:23:46 10° N
Meteor 1-16 Rocket 4.2 06:13:09 10° SSW 06:18:41 55° WNW 06:24:06 10° N
COSMO-SKYMED 1 3.6 06:15:46 10° SSW 06:19:20 25° W 06:21:27 17° NW
Thor Agena Rocket 3.8 06:14:26 10° SSE 06:19:37 73° ENE 06:24:53 10° N
Cosmos 2208 Rocket 4.1 06:15:02 10° NNW 06:20:31 86° ENE 06:25:59 10° SSE
Cosmos 1908 4.2 06:20:21 10° S 06:24:09 51° E 06:27:59 10° NNE
CZ-4 R/B 2.6 06:23:18 10° NNE 06:27:18 47° E 06:31:11 10° S
Cosmos 1703 3.2 06:25:18 10° N 06:29:17 89° W 06:33:12 10° S
Meteor 2-1 Rocket 4.5 06:24:48 10° S 06:30:15 73° E 06:35:48 10° NNE
FAST Rocket 4.4 06:28:10 10° SSW 06:30:38 39° WNW 06:33:37 10° N
Cosmos 2082 Rocket 3.1 06:25:57 10° NNW 06:31:24 48° ENE 06:36:48 10° SE
Cosmos 2184 Rocket 4.1 06:25:29 10° SSW 06:31:34 55° W 06:37:46 10° N
Cosmos 1850 Rocket 4.4 06:27:52 10° SW 06:32:47 40° WNW 06:37:46 10° N
YAOGAN 1 4.2 06:30:24 10° NNE 06:34:29 39° E 06:38:31 10° SSE
Cosmos 332 Rocket 4.3 06:30:06 10° NNW 06:34:41 40° WSW 06:39:13 10° S
COSMOS 2406 4.1 06:30:53 11° NW 06:35:23 28° WSW 06:40:06 10° SSW
Cosmos 1842 Rocket 3.6 06:31:53 10° S 06:36:21 88° E 06:40:51 10° N
MSX 4.2 06:31:59 10° N 06:37:20 41° WNW 06:42:40 10° SW
DELTA 2 R/B (1) 3.8 06:33:00 13° W 06:37:57 64° SSW 06:43:28 10° ESE
CSL-04 Debris 4.4 06:32:34 10° NNE 06:38:06 79° ESE 06:43:35 10° S
Shenzhou-11 Module 2.5 06:36:31 15° WNW 06:38:45 42° N 06:41:38 10° ENE
ALOS 4.3 06:38:54 10° NNE 06:43:07 32° E 06:47:18 10° SSE
Cosmos 304 Rocket 4.0 06:39:48 10° NNW 06:44:36 72° ENE 06:49:22 10° SSE
Tiangong 2 1.0 06:44:17 10° WSW 06:47:29 81° NNW 06:50:42 10° ENE
CZ-4C R/B 3.5 06:41:28 10° NW 06:48:22 42° WSW 06:55:50 10° S
Cosmos 1484 Rocket 3.0 06:45:07 10° N 06:48:38 41° WNW 06:52:10 10° SW
SL-27 R/B 2.5 06:46:06 10° NNW 06:49:44 75° WSW 06:53:22 10° S
Cosmos 2297 3.8 06:45:46 10° SSW 06:51:31 88° ESE 06:57:16 10° NNE
Cosmos 1814 Rocket 4.4 06:46:33 10° NNW 06:51:46 67° ENE 06:56:53 10° SSE
Cosmos 1726 2.7 06:48:35 10° S 06:52:16 62° E 06:55:58 10° NNE
Cosmos 468 Rocket 4.0 06:47:31 10° NNW 06:52:41 74° WSW 06:57:53 10° S
Cosmos 1626 3.3 06:50:44 10° NW 06:53:47 24° W 06:56:49 10° SW
Nadezhda 3 Rocket 4.0 06:47:46 10° N 06:54:09 78° W 07:00:24 10° S
USA 229 DEB 3.7 06:47:29 10° SW 06:54:10 63° NW 07:01:02 10° NNE
USA 229 3.7 06:47:35 10° SW 06:54:16 63° NW 07:01:08 10° NNE
NOSS 3-1 (A) 4.4 06:51:19 10° S 06:56:44 52° ESE 07:02:45 10° NE
METEOR-M 4.5 06:53:56 10° NNE 06:59:18 75° ESE 07:04:38 10° S
Milstar 3 4.0 06:55:51 10° WSW 07:01:58 35° S 07:08:23 10° ESE
Cosmos 841 Rocket 4.2 06:57:17 10° N 07:02:23 57° ENE 07:07:25 10° SSE
